Home > Weather > Schwerin > Past weeks

Flag for Germany Weather for the Past 2 Weeks in Schwerin, Mecklenburg-Western Pomerania, Germany

Now
63 °F

Passing clouds.


Feels Like: 63 °F
Forecast: 39 / 56 °F
Wind: 12 mph from Southwest

Location: Mecklenburg-Vorpommern - Parchim

Current Time: May 3, 2016 at 11:42:20 AM

Latest Report: May 3, 2016 at 10:50 AM


Visibility: N/A

Pressure: 30.04 "Hg

Humidity: 52%

Dew Point: 45 °F

Location of SchwerinLocation

Historic Weather in Schwerin — Graph

°F

Schwerin Temperature Yesterday

Maximum temperature yesterday: 66 °F (at 3:20 PM)
Minimum temperature yesterday: 34 °F (at 6:50 AM)
Average temperature yesterday: 61 °F

High & Low Weather Summary for the Past Weeks

 TemperatureHumidityPressure
High66 °F (May 2, 3:20 PM)100% (Apr 21, 6:20 AM)30.36 "Hg (Apr 21, 6:20 AM)
Low30 °F (Apr 21, 6:50 AM)35% (May 2, 3:20 PM)29.42 "Hg (Apr 26, 6:20 AM)
Average48 °F64%29.97 "Hg
* Reported Apr 18 9:50 AM — May 3 9:50 AM, Schwerin, Weather by CustomWeather, © 2016

Note: Actual official high and low records may vary slightly from our data, if they occured in-between our weather recording intervals... More about our weather records

Advertising

Schwerin Weather History for the Previous 24 Hours

Scroll right to see more
 ConditionsComfort  
Time TempWeatherWind HumidityBarometerVisibility
9:50 AM
Tue, May 3
61 °FSunny.12 mph55%30.04 "Hg10 mi
9:20 AM61 °FPassing clouds.12 mph52%30.04 "HgN/A
8:50 AM59 °FPassing clouds.8 mph55%30.01 "HgN/A
8:20 AM59 °FPassing clouds.6 mph55%30.04 "HgN/A
7:50 AM55 °FPassing clouds.6 mph63%30.04 "HgN/A
7:20 AM50 °FSunny.5 mph76%30.04 "Hg10 mi
6:50 AM45 °FPassing clouds.6 mph81%30.04 "HgN/A
6:20 AM41 °FPassing clouds.6 mph93%30.04 "HgN/A
7:20 PM
Mon, May 2
66 °FSunny.7 mph37%30.12 "Hg10 mi
6:50 PM64 °FSunny.6 mph37%30.12 "Hg10 mi
6:20 PM66 °FSunny.8 mph37%30.15 "Hg10 mi
5:50 PM66 °FSunny.9 mph37%30.15 "Hg10 mi
5:20 PM66 °FSunny.8 mph37%30.18 "Hg10 mi
4:50 PM66 °FPassing clouds.8 mph40%30.18 "HgN/A
4:20 PM66 °FPassing clouds.7 mph40%30.18 "HgN/A
3:50 PM66 °FPassing clouds.10 mph40%30.18 "HgN/A
3:20 PM66 °FPassing clouds.7 mph35%30.21 "HgN/A
2:50 PM64 °FPassing clouds.7 mph40%30.21 "HgN/A
2:20 PM64 °FPassing clouds.8 mph40%30.21 "HgN/A
1:50 PM64 °FPassing clouds.6 mph43%30.24 "HgN/A
1:20 PM64 °FSunny.7 mph43%30.24 "Hg10 mi
12:50 PM63 °FSunny.6 mph49%30.24 "Hg10 mi
12:20 PM63 °FSunny.5 mph49%30.27 "Hg10 mi
11:50 AM63 °FSunny.2 mph52%30.27 "Hg10 mi
11:20 AM61 °FSunny.5 mph55%30.27 "Hg10 mi
Weather by CustomWeather, © 2016

See weather overviewHow to use our weather pages